{"data":{"norad_id":55637,"intl_designator":"2023-021K","name":"STARLINK-5062","alt_names":[],"object_type":"PAYLOAD","status":"ACTIVE","operator":null,"country":"US","launch_date":"2023-02-17","launch_site_code":"AFWTR","launch_vehicle":null,"mission":null,"orbit_class":"UNKNOWN","rcs_meters":null,"size_class":null,"mass_kg":null,"dimensions":null,"purposes":["comms"],"wikipedia_slug":null,"has_3d_model":false,"image_url":null,"decayed_at":null,"tle_current":{"epoch":"2026-05-25T00:42:52.230816Z","epoch_age_seconds":79430,"freshness":"FRESH","line1":"1 55637U 23021K   26145.02977119  .00000473  00000+0  47420-4 0  9992","line2":"2 55637  69.9997 352.0878 0003041 265.0578  95.0234 14.98340924180221","mean_motion":14.98340924,"eccentricity":0.0003041,"inclination_deg":69.9997,"raan_deg":352.0878,"arg_perigee_deg":265.0578,"mean_anomaly_deg":95.0234,"bstar":4.742e-5,"rev_number":18022,"period_min":96.106298435455,"perigee_km":569.90856619556,"apogee_km":574.13565296601,"semimajor_km":6950.1591095808,"source":"CELESTRAK","updated_at":"2026-05-25T13:38:17.848595Z"}}}